Regional Weather Roundup
Issued by NWS Goodland, KS

Home | Current Version | Previous Version | Text Only | Print | Product List | Glossary Off
Versions: 1 2 3 4 5 6 7 8 9 10 11 12 13 14 15 16 17 18 19 20 21 22 23 24 25 26 27 28 29 30 31 32 33 34 35 36 37 38 39 40 41 42 43 44 45 46 47 48 49 50

000
ASUS43 KGLD 290308
RWRGLD

GOODLAND FORECAST AREA HOURLY WEATHER ROUNDUP
NATIONAL WEATHER SERVICE GOODLAND KS
900 PM MDT TUE JUL 28 2015

...OFFICIAL OBSERVATIONS...

CITY           SKY/WX    TMP DP  RH WIND       PRES   REMARKS
GOODLAND KS    CLEAR     63  51  65 N7        30.14R
HILL CITY KS   CLEAR     68  59  73 N6        30.03R
IMPERIAL NEB   CLEAR     67  49  52 E3        30.13R
MCCOOK NEB     CLEAR     67  52  58 N6        30.08R
AKRON CO       CLEAR     63  41  44 E8        30.21R
BURLINGTON CO  CLEAR     67  50  54 NE6       30.18R
LIMON CO       CLEAR     64  46  52 E9        30.25R
$$

...UNOFFICIAL OBSERVATIONS...

CITY           SKY/WX    TMP DP  RH WIND       PRES   REMARKS
COLBY KS       CLEAR     70  59  68 N7        30.12R
NORTON KS      CLEAR     63  54  72 N6        30.04R
SHARON SPRINGS   N/A     70  58  66 NE5         N/A
KIT CARSON CO    N/A     68  49  50 MISG        N/A
$$



USA.gov is the U.S. government's official web portal to all federal, state and local government web resources and services.